Time,TemperatureF,DewpointF,PressureIn,WindDirection,WindDirectionDegrees,WindSpeedMPH,WindSpeedGustMPH,Humidity,HourlyPrecipIn,Conditions,Clouds,dailyrainin,SoftwareType,DateUTC
2013-02-21 00:06:00,26.2,14.0,29.78,NW,308,4.0,5.0,61,0.00,,,0.00,weatherlink.com 1.10,2013-02-21 05:06:00,
2013-02-21 00:22:00,26.1,15.0,29.78,West,280,2.0,7.0,62,0.00,,,0.00,weatherlink.com 1.10,2013-02-21 05:22:00,
2013-02-21 00:37:00,26.1,15.0,29.79,WNW,288,6.0,8.0,63,0.00,,,0.00,weatherlink.com 1.10,2013-02-21 05:37:00,
2013-02-21 00:52:00,26.1,15.0,29.80,NW,310,2.0,4.0,63,0.00,,,0.00,weatherlink.com 1.10,2013-02-21 05:52:00,
2013-02-21 01:07:00,26.0,16.0,29.80,NW,319,1.0,3.0,65,0.00,,,0.00,weatherlink.com 1.10,2013-02-21 06:07:00,
2013-02-21 01:22:00,26.3,16.0,29.80,NNW,331,3.0,7.0,65,0.00,,,0.00,weatherlink.com 1.10,2013-02-21 06:22:00,
2013-02-21 01:37:00,26.5,16.0,29.80,NW,311,1.0,8.0,65,0.00,,,0.00,weatherlink.com 1.10,2013-02-21 06:37:00,
2013-02-21 01:52:00,26.6,16.0,29.80,West,278,1.0,7.0,65,0.00,,,0.00,weatherlink.com 1.10,2013-02-21 06:52:00,
2013-02-21 02:07:00,26.6,16.0,29.81,WNW,297,5.0,7.0,65,0.00,,,0.00,weatherlink.com 1.10,2013-02-21 07:07:00,
2013-02-21 02:22:00,26.7,16.0,29.80,NW,304,5.0,8.0,65,0.00,,,0.00,weatherlink.com 1.10,2013-02-21 07:22:00,
2013-02-21 02:38:00,26.7,16.0,29.80,WNW,302,3.0,9.0,65,0.00,,,0.00,weatherlink.com 1.10,2013-02-21 07:38:00,
2013-02-21 02:52:00,26.5,16.0,29.80,WNW,288,3.0,5.0,64,0.00,,,0.00,weatherlink.com 1.10,2013-02-21 07:52:00,
2013-02-21 03:07:00,26.3,16.0,29.80,WNW,283,2.0,6.0,65,0.00,,,0.00,weatherlink.com 1.10,2013-02-21 08:07:00,
2013-02-21 03:22:00,26.2,16.0,29.80,WNW,300,3.0,7.0,65,0.00,,,0.00,weatherlink.com 1.10,2013-02-21 08:22:00,
2013-02-21 03:37:00,26.1,16.0,29.80,West,273,1.0,6.0,65,0.00,,,0.00,weatherlink.com 1.10,2013-02-21 08:37:00,
2013-02-21 03:52:00,26.0,16.0,29.80,WNW,293,2.0,5.0,65,0.00,,,0.00,weatherlink.com 1.10,2013-02-21 08:52:00,
2013-02-21 04:07:00,25.8,16.0,29.81,NW,310,0.0,6.0,66,0.00,,,0.00,weatherlink.com 1.10,2013-02-21 09:07:00,
2013-02-21 04:22:00,25.4,15.0,29.81,WNW,284,0.0,7.0,66,0.00,,,0.00,weatherlink.com 1.10,2013-02-21 09:22:00,
2013-02-21 04:37:00,25.3,15.0,29.80,WSW,255,4.0,5.0,66,0.00,,,0.00,weatherlink.com 1.10,2013-02-21 09:37:00,
2013-02-21 04:52:00,25.2,15.0,29.81,West,274,1.0,4.0,66,0.00,,,0.00,weatherlink.com 1.10,2013-02-21 09:52:00,
2013-02-21 05:07:00,25.1,15.0,29.82,WNW,301,3.0,8.0,65,0.00,,,0.00,weatherlink.com 1.10,2013-02-21 10:07:00,
2013-02-21 05:22:00,24.7,15.0,29.82,WNW,291,1.0,5.0,67,0.00,,,0.00,weatherlink.com 1.10,2013-02-21 10:22:00,
2013-02-21 05:37:00,24.7,15.0,29.82,WNW,288,2.0,5.0,66,0.00,,,0.00,weatherlink.com 1.10,2013-02-21 10:37:00,
2013-02-21 05:52:00,24.8,14.0,29.82,WNW,287,3.0,6.0,64,0.00,,,0.00,weatherlink.com 1.10,2013-02-21 10:52:00,
2013-02-21 06:07:00,24.8,14.0,29.82,NNW,329,1.0,5.0,64,0.00,,,0.00,weatherlink.com 1.10,2013-02-21 11:07:00,
2013-02-21 06:22:00,24.7,14.0,29.82,WNW,288,2.0,6.0,64,0.00,,,0.00,weatherlink.com 1.10,2013-02-21 11:22:00,
2013-02-21 06:37:00,24.5,14.0,29.82,WNW,285,3.0,6.0,64,0.00,,,0.00,weatherlink.com 1.10,2013-02-21 11:37:00,
2013-02-21 06:52:00,24.4,14.0,29.83,NW,304,1.0,5.0,64,0.00,,,0.00,weatherlink.com 1.10,2013-02-21 11:52:00,
2013-02-21 07:07:00,24.3,14.0,29.82,NNW,333,8.0,8.0,64,0.00,,,0.00,weatherlink.com 1.10,2013-02-21 12:07:00,
2013-02-21 07:22:00,24.4,14.0,29.83,WNW,293,2.0,4.0,64,0.00,,,0.00,weatherlink.com 1.10,2013-02-21 12:22:00,
2013-02-21 07:37:00,24.6,14.0,29.83,WNW,284,2.0,5.0,63,0.00,,,0.00,weatherlink.com 1.10,2013-02-21 12:37:00,
2013-02-21 07:52:00,25.0,14.0,29.83,NW,310,7.0,8.0,62,0.00,,,0.00,weatherlink.com 1.10,2013-02-21 12:52:00,
2013-02-21 08:07:00,25.3,13.0,29.82,West,277,2.0,13.0,61,0.00,,,0.00,weatherlink.com 1.10,2013-02-21 13:07:00,
2013-02-21 08:22:00,25.6,13.0,29.83,WNW,285,3.0,7.0,60,0.00,,,0.00,weatherlink.com 1.10,2013-02-21 13:22:00,
2013-02-21 08:37:00,25.7,13.0,29.83,NW,309,4.0,10.0,60,0.00,,,0.00,weatherlink.com 1.10,2013-02-21 13:37:00,
2013-02-21 08:52:00,25.9,13.0,29.82,WNW,302,5.0,10.0,59,0.00,,,0.00,weatherlink.com 1.10,2013-02-21 13:52:00,
2013-02-21 09:07:00,26.3,14.0,29.81,NW,305,4.0,9.0,59,0.00,,,0.00,weatherlink.com 1.10,2013-02-21 14:07:00,
2013-02-21 09:22:00,27.6,14.0,29.82,WNW,293,7.0,12.0,58,0.00,,,0.00,weatherlink.com 1.10,2013-02-21 14:22:00,
2013-02-21 09:38:00,28.3,14.0,29.82,WNW,283,4.0,13.0,56,0.00,,,0.00,weatherlink.com 1.10,2013-02-21 14:38:00,
2013-02-21 09:53:00,28.7,14.0,29.81,West,280,4.0,14.0,55,0.00,,,0.00,weatherlink.com 1.10,2013-02-21 14:53:00,
2013-02-21 10:08:00,29.4,15.0,29.81,NE,50,3.0,8.0,55,0.00,,,0.00,weatherlink.com 1.10,2013-02-21 15:08:00,
2013-02-21 10:23:00,29.4,14.0,29.81,West,266,3.0,11.0,54,0.00,,,0.00,weatherlink.com 1.10,2013-02-21 15:23:00,
2013-02-21 10:38:00,29.7,14.0,29.82,NNW,331,3.0,10.0,53,0.00,,,0.00,weatherlink.com 1.10,2013-02-21 15:38:00,
2013-02-21 10:53:00,30.0,14.0,29.81,WNW,295,5.0,9.0,52,0.00,,,0.00,weatherlink.com 1.10,2013-02-21 15:53:00,
2013-02-21 11:08:00,30.7,14.0,29.81,WNW,298,5.0,9.0,51,0.00,,,0.00,weatherlink.com 1.10,2013-02-21 16:08:00,
2013-02-21 11:23:00,30.1,14.0,29.81,WNW,301,5.0,10.0,51,0.00,,,0.00,weatherlink.com 1.10,2013-02-21 16:23:00,
2013-02-21 11:38:00,31.3,14.0,29.81,WNW,296,4.0,10.0,50,0.00,,,0.00,weatherlink.com 1.10,2013-02-21 16:38:00,
2013-02-21 11:53:00,31.9,15.0,29.81,North,4,2.0,8.0,51,0.00,,,0.00,weatherlink.com 1.10,2013-02-21 16:53:00,
2013-02-21 12:08:00,31.8,14.0,29.81,NW,311,4.0,10.0,49,0.00,,,0.00,weatherlink.com 1.10,2013-02-21 17:08:00,
2013-02-21 12:23:00,31.4,14.0,29.81,WNW,296,4.0,12.0,48,0.00,,,0.00,weatherlink.com 1.10,2013-02-21 17:23:00,
2013-02-21 12:38:00,31.4,14.0,29.81,WNW,293,9.0,11.0,49,0.00,,,0.00,weatherlink.com 1.10,2013-02-21 17:38:00,
2013-02-21 12:53:00,31.5,15.0,29.80,WNW,300,7.0,10.0,50,0.00,,,0.00,weatherlink.com 1.10,2013-02-21 17:53:00,
2013-02-21 13:08:00,32.0,15.0,29.80,NW,325,5.0,8.0,50,0.00,,,0.00,weatherlink.com 1.10,2013-02-21 18:08:00,
2013-02-21 13:23:00,31.7,15.0,29.80,NW,308,4.0,10.0,50,0.00,,,0.00,weatherlink.com 1.10,2013-02-21 18:23:00,
2013-02-21 13:38:00,31.6,14.0,29.80,NW,326,3.0,9.0,49,0.00,,,0.00,weatherlink.com 1.10,2013-02-21 18:38:00,
2013-02-21 13:53:00,32.3,16.0,29.80,WNW,293,4.0,9.0,51,0.00,,,0.00,weatherlink.com 1.10,2013-02-21 18:53:00,
2013-02-21 14:08:00,32.2,15.0,29.80,NW,309,2.0,9.0,49,0.00,,,0.00,weatherlink.com 1.10,2013-02-21 19:08:00,
2013-02-21 14:23:00,32.5,15.0,29.80,West,278,4.0,11.0,48,0.00,,,0.00,weatherlink.com 1.10,2013-02-21 19:23:00,
2013-02-21 14:38:00,33.1,15.0,29.81,NW,311,5.0,10.0,47,0.00,,,0.00,weatherlink.com 1.10,2013-02-21 19:38:00,
2013-02-21 14:53:00,33.6,16.0,29.82,NW,323,5.0,9.0,48,0.00,,,0.00,weatherlink.com 1.10,2013-02-21 19:53:00,
2013-02-21 15:08:00,33.5,15.0,29.82,NNW,328,3.0,9.0,47,0.00,,,0.00,weatherlink.com 1.10,2013-02-21 20:08:00,
2013-02-21 15:23:00,34.0,16.0,29.82,NW,319,4.0,5.0,48,0.00,,,0.00,weatherlink.com 1.10,2013-02-21 20:23:00,
2013-02-21 15:38:00,33.5,16.0,29.83,NW,319,5.0,10.0,48,0.00,,,0.00,weatherlink.com 1.10,2013-02-21 20:38:00,
2013-02-21 15:53:00,32.8,16.0,29.84,NNW,337,2.0,7.0,51,0.00,,,0.00,weatherlink.com 1.10,2013-02-21 20:53:00,
2013-02-21 16:08:00,32.4,15.0,29.86,NW,321,4.0,11.0,49,0.00,,,0.00,weatherlink.com 1.10,2013-02-21 21:08:00,
2013-02-21 16:23:00,32.0,15.0,29.86,WNW,290,5.0,15.0,50,0.00,,,0.00,weatherlink.com 1.10,2013-02-21 21:23:00,
2013-02-21 16:38:00,31.6,15.0,29.88,West,267,4.0,10.0,50,0.00,,,0.00,weatherlink.com 1.10,2013-02-21 21:38:00,
2013-02-21 16:53:00,31.3,15.0,29.89,NW,319,4.0,7.0,51,0.00,,,0.00,weatherlink.com 1.10,2013-02-21 21:53:00,
2013-02-21 17:09:00,31.0,15.0,29.91,NW,319,2.0,7.0,52,0.00,,,0.00,weatherlink.com 1.10,2013-02-21 22:09:00,
2013-02-21 17:23:00,30.3,15.0,29.92,NNE,15,5.0,12.0,53,0.00,,,0.00,weatherlink.com 1.10,2013-02-21 22:23:00,
2013-02-21 17:38:00,29.8,15.0,29.93,NW,316,2.0,9.0,54,0.00,,,0.00,weatherlink.com 1.10,2013-02-21 22:38:00,
2013-02-21 17:53:00,29.5,15.0,29.95,WNW,301,4.0,7.0,54,0.00,,,0.00,weatherlink.com 1.10,2013-02-21 22:53:00,
2013-02-21 18:08:00,29.1,15.0,29.96,NNW,342,1.0,7.0,55,0.00,,,0.00,weatherlink.com 1.10,2013-02-21 23:08:00,
2013-02-21 18:23:00,28.8,15.0,29.96,WNW,297,5.0,16.0,56,0.00,,,0.00,weatherlink.com 1.10,2013-02-21 23:23:00,
2013-02-21 18:38:00,28.5,14.0,29.97,NW,319,4.0,7.0,56,0.00,,,0.00,weatherlink.com 1.10,2013-02-21 23:38:00,
2013-02-21 18:54:00,28.2,15.0,29.99,NW,304,5.0,7.0,57,0.00,,,0.00,weatherlink.com 1.10,2013-02-21 23:54:00,
2013-02-21 19:08:00,28.1,15.0,30.00,NW,305,2.0,8.0,58,0.00,,,0.00,weatherlink.com 1.10,2013-02-22 00:08:00,
2013-02-21 19:24:00,28.0,15.0,30.00,NNW,330,2.0,6.0,59,0.00,,,0.00,weatherlink.com 1.10,2013-02-22 00:24:00,
2013-02-21 19:39:00,27.9,15.0,30.01,NW,311,2.0,5.0,58,0.00,,,0.00,weatherlink.com 1.10,2013-02-22 00:39:00,
2013-02-21 19:54:00,27.5,15.0,30.02,NNW,328,2.0,6.0,60,0.00,,,0.00,weatherlink.com 1.10,2013-02-22 00:54:00,
2013-02-21 20:09:00,27.3,15.0,30.03,NW,321,2.0,4.0,61,0.00,,,0.00,weatherlink.com 1.10,2013-02-22 01:09:00,
2013-02-21 20:24:00,27.2,15.0,30.04,NW,319,3.0,8.0,61,0.00,,,0.00,weatherlink.com 1.10,2013-02-22 01:24:00,
2013-02-21 20:39:00,27.1,15.0,30.05,NNW,334,1.0,5.0,61,0.00,,,0.00,weatherlink.com 1.10,2013-02-22 01:39:00,
2013-02-21 20:54:00,27.0,15.0,30.05,North,350,3.0,6.0,62,0.00,,,0.00,weatherlink.com 1.10,2013-02-22 01:54:00,
2013-02-21 21:09:00,27.0,16.0,30.07,NNE,30,4.0,5.0,63,0.00,,,0.00,weatherlink.com 1.10,2013-02-22 02:09:00,
2013-02-21 21:24:00,27.1,16.0,30.07,North,358,1.0,6.0,63,0.00,,,0.00,weatherlink.com 1.10,2013-02-22 02:24:00,
2013-02-21 21:39:00,26.9,16.0,30.08,NW,316,3.0,5.0,64,0.00,,,0.00,weatherlink.com 1.10,2013-02-22 02:39:00,
2013-02-21 21:54:00,26.9,17.0,30.09,NW,323,2.0,4.0,65,0.00,,,0.00,weatherlink.com 1.10,2013-02-22 02:54:00,
2013-02-21 22:09:00,26.8,16.0,30.08,NNW,330,1.0,3.0,65,0.00,,,0.00,weatherlink.com 1.10,2013-02-22 03:09:00,
2013-02-21 22:24:00,26.7,17.0,30.11,WNW,298,1.0,6.0,66,0.00,,,0.00,weatherlink.com 1.10,2013-02-22 03:24:00,
2013-02-21 22:39:00,26.6,17.0,30.11,NNW,338,1.0,4.0,66,0.00,,,0.00,weatherlink.com 1.10,2013-02-22 03:39:00,
2013-02-21 22:54:00,26.5,16.0,30.12,WNW,297,2.0,6.0,66,0.00,,,0.00,weatherlink.com 1.10,2013-02-22 03:54:00,
2013-02-21 23:09:00,26.3,17.0,30.13,NW,316,2.0,4.0,67,0.00,,,0.00,weatherlink.com 1.10,2013-02-22 04:09:00,
2013-02-21 23:24:00,26.4,17.0,30.13,WNW,298,0.0,3.0,68,0.00,,,0.00,weatherlink.com 1.10,2013-02-22 04:24:00,
2013-02-21 23:39:00,26.6,17.0,30.15,NW,323,2.0,5.0,68,0.00,,,0.00,weatherlink.com 1.10,2013-02-22 04:39:00,
2013-02-21 23:54:00,26.5,17.0,30.17,West,277,2.0,4.0,68,0.00,,,0.00,weatherlink.com 1.10,2013-02-22 04:54:00,